This is the latest recevied weather packets stored in our database for station/object KB4MOX. If no packets are shown the sender has not sent any weather packets the latest 10 day(s).
| Time | Temp. | Humidity | Pressure | Rain* | Wind** | Luminosity | Snow |
|---|---|---|---|---|---|---|---|
| 1787417451 | 31.11° C | 67% | 1015.7 hPa | 0 mm | - | 799 W/m² | - |
| 1787417147 | 31.11° C | 67% | 1016.1 hPa | 0 mm | - | 790 W/m² | - |
| 1787416843 | 30.56° C | 69% | 1015.9 hPa | 0 mm | - | 775 W/m² | - |
| 1787416538 | 30.56° C | 68% | 1016.1 hPa | 0 mm | - | 768 W/m² | - |
| 1787416233 | 30° C | 70% | 1016.1 hPa | 0 mm | - | 767 W/m² | - |
| 1787415928 | 30° C | 69% | 1016.2 hPa | 0 mm | - | 744 W/m² | - |
| 1787415628 | 30° C | 71% | 1016.3 hPa | 0 mm | - | 755 W/m² | - |
| 1787415323 | 30° C | 71% | 1016.2 hPa | 0 mm | - | 260 W/m² | - |
| 1787415018 | 30° C | 71% | 1016.3 hPa | 0 mm | - | 717 W/m² | - |
| 1787414714 | 30° C | 70% | 1016.4 hPa | 0 mm | - | 694 W/m² | - |
| 1787414414 | 30° C | 72% | 1016.4 hPa | 0 mm | - | 690 W/m² | - |
| 1787414112 | 29.44° C | 73% | 1016.3 hPa | 0 mm | - | 673 W/m² | - |
| 1787413807 | 28.89° C | 75% | 1016.4 hPa | 0 mm | - | 657 W/m² | - |
| 1787413502 | 28.33° C | 75% | 1016.5 hPa | 0 mm | - | 665 W/m² | - |
| 1787413197 | 28.33° C | 76% | 1016.5 hPa | 0 mm | - | 632 W/m² | - |
| 1787412893 | 28.33° C | 78% | 1016.5 hPa | 0 mm | - | 190 W/m² | - |
| 1787412588 | 27.78° C | 78% | 1016.6 hPa | 0 mm | - | 367 W/m² | - |
| 1787412283 | 27.78° C | 77% | 1016.9 hPa | 0 mm | - | 222 W/m² | - |
| 1787411979 | 27.78° C | 79% | 1016.8 hPa | 0 mm | - | 293 W/m² | - |
| 1787411676 | 27.22° C | 80% | 1016.7 hPa | 0 mm | - | 199 W/m² | - |
| 1787411371 | 27.22° C | 80% | 1016.8 hPa | 0 mm | - | 151 W/m² | - |
| 1787411067 | 27.22° C | 80% | 1016.6 hPa | 0 mm | - | 124 W/m² | - |
| 1787410762 | 27.22° C | 80% | 1016.6 hPa | 0 mm | - | 141 W/m² | - |
| 1787410458 | 26.67° C | 83% | 1016.7 hPa | 0 mm | - | 205 W/m² | - |
| 1787410153 | 26.11° C | 83% | 1016.6 hPa | 0 mm | - | 108 W/m² | - |
* Rain latest hour (hover to see other rain measurements)
** Current wind speed in m/s (hover to see current wind gust speed)